This demonstration page uses our WeatherBlox Daily Observations layout. Learn more.

Left ArrowRight Arrow

44.89941, -97.11507

Hourly Observations for January 19, 2016

Temp ( °F °C ) Dew Point ( °F °C ) Humidity (%) Winds ( mph kmh ) Pressure ( in mb ) Visibility ( mi km ) Precip ( " mm )
12:53 am 00:53 Clear 2 -16.7 -3 -19.4 80 80 SSE 7 11 30.37 1029 10 16 0.00 0.00
1:24 am 01:24 Mostly Clear 2 -16.7 -3 -19.4 80 80 SE 8 13 30.42 1030 9 14 0.00 0.00
1:53 am 01:53 Partly Cloudy 2 -16.7 -3 -19.4 80 80 SE 7 11 30.34 1027 10 16 0.00 0.00
2:53 am 02:53 Mostly Clear 3 -16.1 -3 -19.4 76 76 ESE 6 9 30.35 1028 10 16 0.00 0.00
3:53 am 03:53 Mostly Cloudy 2 -16.7 -4 -20 76 76 SE 6 9 30.38 1029 10 16 0.00 0.00
4:11 am 04:11 Mostly Cloudy 2 -16.7 -4 -20 76 76 ESE 5 7 30.45 1031 9 14 0.00 0.00
4:46 am 04:46 Cloudy 3 -16.1 -3 -19.4 76 76 ESE 7 11 30.45 1031 10 16 0.00 0.00
4:53 am 04:53 Cloudy 3 -16.1 -3 -19.4 76 76 ESE 9 15 30.35 1028 10 16 0.00 0.00
5:27 am 05:27 Cloudy 4 -15.6 -3 -19.4 73 73 SE 9 15 30.42 1030 10 16 0.00 0.00
5:39 am 05:39 Cloudy 4 -15.6 -3 -19.4 73 73 SE 12 19 30.42 1030 10 16 0.00 0.00
5:53 am 05:53 Cloudy 4 -15.6 -3 -19.4 73 73 SE 9 15 30.35 1028 10 16 0.00 0.00
5:58 am 05:58 Cloudy 4 -15.6 -2 -18.9 76 76 SE 9 15 30.42 1030 10 16 0.00 0.00
6:28 am 06:28 Cloudy 5 -15 -2 -18.9 72 72 SSE 8 13 30.45 1031 10 16 0.00 0.00
6:53 am 06:53 Cloudy 5 -15 -2 -18.9 72 72 SE 10 17 30.37 1028 10 16 0.00 0.00
7:38 am 07:38 Cloudy 6 -14.4 -1 -18.3 73 73 SSE 9 15 30.42 1030 10 16 0.00 0.00
7:53 am 07:53 Cloudy 6 -14.4 -1 -18.3 73 73 SSE 13 20 30.37 1029 10 16 0.00 0.00
8:53 am 08:53 Cloudy 7 -13.9 0 -17.8 73 73 SE 12 19 30.37 1029 10 16 0.00 0.00
9:03 am 09:03 Cloudy 8 -13.3 0 -17.8 69 69 SSE 12 19 30.42 1030 10 16 0.00 0.00
9:18 am 09:18 Cloudy with Light Snow 8 -13.3 0 -17.8 69 69 SE 10 17 30.42 1030 2 3 0.00 0.03
9:21 am 09:21 Cloudy with Light Snow 8 -13.3 1 -17.2 73 73 SSE 13 20 30.42 1030 1 2 0.00 0.03
9:29 am 09:29 Cloudy with Light Snow 8 -13.3 1 -17.2 73 73 SSE 10 17 30.42 1030 1 2 0.00 0.03
9:53 am 09:53 Mostly Cloudy with Light Snow 8 -13.3 2 -16.7 76 76 SSE 9 15 30.38 1029 1 1 0.00 0.03
10:22 am 10:22 Cloudy with Light Snow 8 -13.3 2 -16.7 76 76 SSE 12 19 30.42 1030 1 2 0.00 0.03
10:30 am 10:30 Cloudy with Light Snow 9 -12.8 3 -16.1 77 77 SSE 12 19 30.45 1031 2 3 0.00 0.03
10:32 am 10:32 Cloudy with Light Snow 9 -12.8 3 -16.1 77 77 SSE 9 15 30.45 1031 2 3 0.00 0.03
10:49 am 10:49 Cloudy with Light Snow 9 -13 3 -16 78 78 SSE 13 20 30.42 1030 5 8 0.00 0.03
10:53 am 10:53 Cloudy with Light Snow 9 -12.8 3 -16.1 77 77 SSE 13 20 30.38 1029 7 11 0.00 0.03
11:02 am 11:02 Cloudy 9 -12.8 3 -16.1 77 77 SSE 14 22 30.42 1030 10 16 0.00 0.03
11:53 am 11:53 Cloudy 10 -12.2 4 -15.6 76 76 S 17 28 30.35 1028 10 16 0.00 0.03
12:34 pm 12:34 Cloudy 11 -11.7 4 -15.6 73 73 SSE 14 22 30.39 1029 10 16 0.00 0.00
12:53 pm 12:53 Cloudy 11 -11.7 5 -15 77 77 S 14 22 30.34 1027 9 14 0.00 0.00
1:25 pm 13:25 Cloudy 12 -11.1 6 -14.4 77 77 S 13 20 30.36 1028 9 14 0.00 0.00
1:53 pm 13:53 Cloudy 12 -11.1 6 -14.4 77 77 S 14 22 30.30 1026 10 16 0.00 0.00
2:33 pm 14:33 Cloudy 12 -11.1 6 -14.4 77 77 S 14 22 30.33 1027 10 16 0.00 0.00
2:53 pm 14:53 Cloudy 13 -10.6 7 -13.9 77 77 SSE 14 22 30.28 1026 10 16 0.00 0.00
3:25 pm 15:25 Cloudy 13 -10.6 7 -13.9 77 77 SSE 17 28 30.30 1026 9 14 0.00 0.00
3:53 pm 15:53 Cloudy 13 -10.6 8 -13.3 81 81 S 17 28 30.28 1025 9 14 0.00 0.00
4:53 pm 16:53 Cloudy 14 -10 8 -13.3 77 77 S 12 19 30.27 1025 8 13 0.00 0.00
5:53 pm 17:53 Cloudy 15 -9.4 10 -12.2 80 80 S 10 17 30.26 1025 9 14 0.00 0.00
6:53 pm 18:53 Cloudy 16 -8.9 11 -11.7 80 80 S 9 15 30.25 1024 10 16 0.00 0.00
7:53 pm 19:53 Cloudy 16 -8.9 11 -11.7 80 80 S 12 19 30.23 1024 9 14 0.00 0.00
8:53 pm 20:53 Cloudy 16 -8.9 11 -11.7 80 80 S 12 19 30.21 1023 9 14 0.00 0.00
9:53 pm 21:53 Cloudy 16 -8.9 11 -11.7 80 80 S 10 17 30.19 1022 9 14 0.00 0.00
10:53 pm 22:53 Cloudy 17 -8.3 12 -11.1 80 80 S 10 17 30.17 1022 8 13 0.00 0.00
11:53 pm 23:53 Cloudy 18 -7.8 13 -10.6 81 81 S 12 19 30.16 1021 8 13 0.00 0.00

Powered by AerisWeather